Weather in Georgioupolis

Greece     35°21′39″N   24°15′39″E
temp.,
°C
wind,
m/s
gust,
m/s
humid.,
%
clouds,
%
prec.,
mm/h
press.,
hPa
HPBL,
m
22 january, fri
fri2223:00+7wsw237612 0.0 1029124
02:00+7wsw347417 0.0 1028284
05:00+7wsw2377100 0.0 1027201
08:00+7wsw338198 0.0 1027255
11:00+10sw236467 0.0 1027779
14:00+10ssw336366 0.0 1025836
17:00+9ssw237088 0.0 1025344
20:00+7wsw227753 0.0 102454
23 january, sat
sat2323:00+7sw22770 0.0 102457
02:00+8ssw348329 0.1 1023369
05:00+8ssw458085 0.1 1022422
08:00+8ssw347792 0.2 1022387
11:00+10ssw576893 0.1 10211057
14:00+11ssw687277 0.1 10191052
17:00+9ssw587366 0.1 1018981
20:00+8ssw567683 0.1 1018489
24 january, sun
sun2423:00+8ssw567861 0.0 1017413
02:00+8ssw467735 0.0 1017413
05:00+9ssw567838 0.0 1015420
08:00+10ssw457544 0.1 1016442
11:00+11ssw458899 0.9 1017419
14:00+14ssw467070 1.4 1016944
17:00+12sw587736 0.0 1015687
20:00+10sw458654 0.1 1015218
25 january, mon
mon2523:00+10ssw599262 0.3 1015479
02:00+11ssw6128967 1.0 1014835
05:00+11sw6108659 0.6 1013800
08:00+11sw698549 0.9 1013544
11:00+14sw71078100 0.3 10141077
14:00+15sw71065100 0.4 10141092
17:00+12sw5773100 0.0 1014518
20:00+11wsw577697 0.0 1015349
26 january, tue
tue2623:00+10wsw578198 0.0 1016361
02:00+9wsw358399 0.0 1016258
05:00+9wsw358480 0.0 1015225
08:00+9w348354 0.0 1016179
11:00+12sw457766 0.1 1017702
14:00+12sw568179 0.9 1015696
17:00+10sw4689100 2.3 1014518
20:00+10wsw3487100 4.4 1014332